Overview Statistics Trail Chart Weather Telemetry Raw packets
 

This is the latest recevied weather packets stored in our database for station/object KC0OOO-WX. If no packets are shown the sender has not sent any weather packets the latest 10 day(s).

<< 14 15 16 17 18 19 20 >>
Time Temp. Humidity Pressure Rain* Wind** Luminosity Snow
1777591298 15.56° C 19% 1014.2 hPa 0 mm - - -
1777590698 16.11° C 18% 1014.2 hPa 0 mm - - -
1777590098 17.22° C 18% 1014.6 hPa 0 mm - - -
1777589498 17.78° C 18% 1014.6 hPa 0 mm - - -
1777588898 16.67° C 19% 1014.6 hPa 0 mm - - -
1777588298 16.11° C 20% 1014.6 hPa 0 mm - - -
1777587698 16.67° C 18% 1014.6 hPa 0 mm - - -
1777587098 16.67° C 18% 1014.6 hPa 0 mm - - -
1777586468 16.67° C 21% 1014.9 hPa 0 mm - - -
1777585868 17.22° C 20% 1014.9 hPa 0 mm - - -
1777585268 16.67° C 20% 1014.9 hPa 0 mm - - -
1777584668 17.22° C 20% 1014.9 hPa 0 mm - - -
1777584068 17.22° C 23% 1015.2 hPa 0 mm - - -
1777583468 17.22° C 21% 1015.2 hPa 0 mm - - -
1777582868 17.22° C 20% 1015.6 hPa 0 mm - - -
1777582267 17.22° C 19% 1015.6 hPa 0 mm - - -
1777581637 17.78° C 19% 1015.6 hPa 0 mm - - -
1777581037 18.33° C 20% 1015.6 hPa 0 mm - - -
1777580437 18.33° C 21% 1015.6 hPa 0 mm - - -
1777579807 17.22° C 18% 1015.6 hPa 0 mm - - -
1777579207 17.22° C 19% 1015.9 hPa 0 mm - - -
1777578607 17.78° C 20% 1015.9 hPa 0 mm - - -
1777578007 16.67° C 21% 1015.9 hPa 0 mm - - -
1777577407 16.67° C 21% 1015.9 hPa 0 mm - - -
1777576807 16.67° C 20% 1015.9 hPa 0 mm - - -

* Rain latest hour (hover to see other rain measurements)
** Current wind speed in m/s (hover to see current wind gust speed)